Location: Asheville, NC
(35.6000°N, 82.5500°W)
Time: 12:46:13
(UTC-04:00)

Vanguard 2 Rocket - Pass Details

Date: 15 December 2017
Orbit: 553 x 3327 km, 32.9° (Epoch: 17 June)

Event Time Altitude Azimuth Distance (km) Brightness Sun altitude
Rises 22:10:23 0° 272° (W) 5,652 11.4 -58.3°
Reaches altitude 10° 22:13:33 10° 272° (W) 4,947 10.9 -58.9°
Enters shadow 22:22:05 46° 265° (W) 3,478 9.7 -60.6°
